Location: ?????????
(37.9506°N, 23.5280°E)
Time: 12:26:53
(UTC+00:00)

Daily predictions for brighter satellites

Satellite Brightness Start Highest point End
(mag) Time Altitude Azimuth Time Altitude Azimuth Time Altitude Azimuth
Cosmos 540 Rocket 3.6 16:28:56 10° N 16:33:56 53° ENE 16:38:54 10° SE
ATLAS 3B R/B 3.2 16:28:18 10° NW 16:36:09 81° WSW 16:43:49 10° SSE
USA 32 4.4 16:31:14 10° N 16:36:27 72° W 16:41:40 10° S
Meteor 2-8 Rocket 4.4 16:32:34 10° S 16:38:40 76° E 16:44:46 10° N
Okean 1-7 Rocket 3.9 16:35:22 10° SSE 16:39:42 47° E 16:44:01 10° NNE
SL-4 R/B 4.2 16:37:20 10° NNW 16:40:09 16° NNE 16:43:00 10° NE
USA 281 3.2 16:34:19 10° SSE 16:40:53 80° ENE 16:47:27 10° NNW
ADEOS Rocket 4.1 16:35:13 10° SE 16:42:01 36° ENE 16:48:28 10° N
Gbstr 26 Del rocket 4.0 16:36:59 10° SSW 16:42:17 57° SE 16:48:51 10° NE
CZ-4 R/B 3.2 16:41:00 10° E 16:42:31 12° ENE 16:44:01 10° NE
GP-B 3.0 16:38:46 10° SSE 16:43:08 70° E 16:47:31 10° N
BlueWalker 3 4.0 16:41:16 10° WNW 16:44:10 20° NNW 16:47:04 10° NNE
Cosmos 1763 Rocket 3.6 16:40:26 10° NNW 16:45:30 81° WSW 16:50:34 10° SSE
Cosmos 2233 Rocket 4.0 16:40:31 10° S 16:46:50 82° E 16:53:10 10° N
Meteor 2-3 Rocket 4.0 16:43:56 10° SSE 16:49:28 48° E 16:54:59 10° NNE
NOAA 6 4.1 16:45:47 10° SSE 16:50:57 89° WSW 16:56:10 10° NNW
ERS-2 1.6 16:50:53 10° S 16:52:07 32° WSW 16:53:22 10° NNW
TRACE 4.4 16:52:13 10° NNE 16:55:46 76° E 16:59:16 10° S
COSMO-SKYMED 1 3.6 16:53:23 10° N 16:57:36 50° WNW 17:01:48 10° SSW
ATLAS 5 CENTAUR R/B 2.4 16:52:35 10° NNW 16:57:45 54° NE 17:04:03 10° SE
Cosmos 1980 Rocket 3.3 16:53:30 10° N 16:57:55 23° NE 17:01:47 12° ESE
Cosmos 1656 4.1 16:53:24 10° NNW 16:58:56 66° WSW 17:04:21 10° S
Cosmos 2292 Rocket 4.0 16:57:42 10° N 17:02:12 63° E 17:08:07 10° SSE
Cosmos 1741 Rocket 4.1 16:57:10 10° S 17:02:19 54° ESE 17:07:28 10° NNE
CZ-4B R/B 4.3 16:59:18 10° ESE 17:03:22 22° ENE 17:07:27 10° NNE
ADEOS 3.5 16:58:28 10° SSE 17:03:37 67° ENE 17:08:48 10° N
USA 267 3.4 16:57:08 10° SE 17:03:41 84° SW 17:10:16 10° NW
Cosmos 2360 4.1 17:00:29 10° NNW 17:06:12 77° ENE 17:11:52 10° SSE
Cosmos 1933 3.7 17:06:38 10° N 17:10:24 40° E 17:14:09 10° SSE
Cosmos 1862 3.8 17:07:37 10° SSE 17:11:08 34° E 17:14:39 10° NNE
SL-08 R/B 3.7 17:11:10 10° N 17:15:54 67° WNW 17:20:32 10° SSW
Cosmos 1464 Rocket 4.3 17:11:50 10° SSE 17:17:41 43° E 17:23:29 10° NNE
PAYLOAD B 4.4 17:18:41 10° SE 17:23:57 48° ENE 17:29:13 10° N
YAOGAN 1 2.7 17:20:12 10° S 17:24:29 77° WSW 17:28:48 10° NNW
USA 229 DEB 4.0 17:17:50 10° NNW 17:25:28 81° ENE 17:33:37 10° SE
USA 229 4.0 17:17:56 10° NNW 17:25:34 80° ENE 17:33:44 10° SE
Cosmos 1833 Rocket 4.0 17:20:43 10° SW 17:26:00 41° WNW 17:31:19 10° N
Cosmos 2082 Rocket 2.2 17:23:24 10° S 17:28:54 61° ESE 17:34:26 10° NNE
Cosmos 1437 Rocket 3.9 17:26:12 10° SSW 17:29:59 46° W 17:33:46 10° N
OAO 3 Rocket 3.4 17:27:21 10° WSW 17:32:11 62° S 17:34:23 31° ESE
Cosmos 1812 Rocket 3.8 17:28:44 10° NNW 17:33:03 72° W 17:37:22 10° S
Cosmos 1697 Rocket 2.7 17:28:03 10° NNW 17:33:45 86° WSW 17:39:24 10° SSE
Cosmos-2242 4.1 17:30:40 10° NNW 17:34:49 46° W 17:38:56 10° SSW
COSMOS 2406 3.2 17:30:04 10° S 17:35:37 61° ESE 17:41:14 10° NNE
CZ-4B DEB 4.1 17:30:38 10° SSE 17:36:04 83° ENE 17:41:32 10° NNW
Resurs 1-3 3.6 17:34:18 11° SSE 17:38:20 53° ENE 17:42:35 10° N
CZ-4B R/B 3.1 17:34:23 10° S 17:38:23 72° W 17:42:35 10° NNW
Cosmos 1515 3.4 17:35:50 10° N 17:39:21 58° E 17:40:08 45° SE
Cosmos 1544 3.1 17:42:05 10° SSW 17:45:05 60° W 17:48:06 10° N
SPOT 1/Viking Rocket 3.7 17:42:40 26° SE 17:45:12 48° ENE 17:50:07 10° N
SL-24 R/B - RUBIN 2 4.5 17:40:53 10° SW 17:46:22 71° WNW 17:52:37 10° NNE
Meteor 1-26 Rocket 4.0 17:41:01 10° N 17:46:27 79° E 17:51:55 10° SSE
IRIDIUM 106 4.2 17:41:46 10° S 17:46:55 65° E 17:52:05 10° N
Cosmos 1072 Rocket 4.3 17:40:51 10° S 17:46:58 84° E 17:53:06 10° N
Lacrosse 5 4.3 17:48:14 10° WNW 17:51:13 15° NNW 17:54:12 10° N
Okean O Rocket 3.0 17:55:08 25° NNE 17:55:08 25° NNE 17:57:15 10° N
Elektron 3 4.2 17:51:35 10° NNW 17:53:52 55° NNW 17:53:52 55° NNW
Cosmos 2221 2.3 17:50:34 10° N 17:54:47 68° E 17:55:17 61° SE
Resurs 01 Rocket 3.5 17:58:16 17° NNE 17:58:16 17° NNE 17:59:30 10° N
Nadezhda 4 Rocket 3.9 17:50:36 10° N 17:56:47 60° E 18:02:42 11° SSE
GEOS 3 Rocket 3.6 17:54:34 34° SE 17:56:57 76° NE 18:02:20 10° NNW
SJ-6B 2.6 17:57:32 49° S 17:58:26 79° WSW 18:02:06 10° NNW
Cosmos 1782 4.5 17:56:41 10° NNW 18:00:13 33° W 18:03:42 10° SSW
H-2A R/B 3.7 17:56:49 10° S 17:58:35 18° SSE 17:58:35 18° SSE
SJ 16-02 1.5 17:59:18 10° S 18:02:48 55° SSE 18:02:48 55° SSE
Cosmos 968 Rocket 3.9 18:00:02 10° SSW 18:05:13 63° WNW 18:10:27 10° NNE
Meteor 2-6 Rocket 4.2 18:03:23 10° N 18:09:09 62° E 18:10:06 54° ESE
Cosmos 2151 4.5 18:05:49 10° S 18:07:32 24° S 18:07:32 24° S
CSL-04 Rocket 3.7 18:13:08 59° NE 18:13:08 59° NE 18:18:04 10° N
CZ-4 R/B 2.2 18:15:04 28° SSW 18:16:43 46° W 18:20:32 10° NNW
Gblst 52 Del rocket 4.0 18:13:58 10° SW 18:19:17 72° SSE 18:19:17 72° SSE
SL-4 R/B 3.4 18:15:44 10° NW 18:18:47 34° N 18:18:47 34° N
ADEOS Rocket 4.5 18:19:52 10° S 18:27:13 46° W 18:34:15 10° NNW
Atlas Centaur 2 4.0 18:29:40 10° SSW 18:30:24 13° SSW 18:30:24 13° SSW
Cosmos 2369 4.0 18:35:09 10° NNW 18:40:43 63° WSW 18:41:03 62° SW
ATLAS 5 CENTAUR R/B 4.3 18:37:10 10° WNW 18:41:43 25° WSW 18:46:54 10° SSW
Cosmos 1980 Rocket 3.0 18:36:46 10° NW 18:42:08 48° WSW 18:43:38 38° SSW
CZ-4B R/B 4.1 18:40:14 20° SSW 18:43:33 44° W 18:48:44 10° NNW
SL-16 R/B 4.0 18:43:32 10° N 18:45:31 21° N 18:45:31 21° N
